Time,TemperatureF,DewpointF,PressureIn,WindDirection,WindDirectionDegrees,WindSpeedMPH,WindSpeedGustMPH,Humidity,HourlyPrecipIn,Conditions,Clouds,dailyrainin,SoftwareType,DateUTC
2013-02-06 07:51:00,45.0,42.0,30.14,ESE,114,4.0,4.0,89,0.00,,,-99.99,,2013-02-06 15:51:00,
2013-02-06 08:21:00,45.0,42.0,30.14,ESE,114,4.0,4.0,89,0.00,,,-99.99,,2013-02-06 16:21:00,
2013-02-06 08:32:00,45.0,42.0,30.14,ESE,114,4.0,4.0,89,0.00,,,-99.99,,2013-02-06 16:32:00,
2013-02-06 08:41:00,45.0,42.0,30.14,ESE,114,4.0,4.0,89,0.00,,,-99.99,,2013-02-06 16:41:00,
2013-02-06 09:22:00,47.0,44.0,30.16,ESE,114,0.0,0.0,90,0.00,,,-99.99,,2013-02-06 17:22:00,
2013-02-06 09:32:00,49.0,46.0,30.16,ESE,114,0.0,0.0,90,0.00,,,-99.99,,2013-02-06 17:32:00,
2013-02-06 09:42:00,49.0,46.0,30.16,ESE,114,0.0,0.0,90,0.00,,,-99.99,,2013-02-06 17:42:00,
2013-02-06 09:52:00,50.0,47.0,30.16,ESE,114,0.0,1.0,89,0.00,,,-99.99,,2013-02-06 17:52:00,
2013-02-06 10:01:00,51.0,48.0,30.17,ESE,114,0.0,1.0,89,0.00,,,-99.99,,2013-02-06 18:01:00,
2013-02-06 10:11:00,51.0,48.0,30.16,ESE,114,0.0,0.0,88,0.00,,,-99.99,,2013-02-06 18:11:00,
2013-02-06 10:22:00,51.0,48.0,30.16,ESE,114,0.0,0.0,88,0.00,,,-99.99,,2013-02-06 18:22:00,
2013-02-06 10:32:00,51.0,48.0,30.16,ESE,114,0.0,2.0,88,0.00,,,-99.99,,2013-02-06 18:32:00,
2013-02-06 10:41:00,51.0,48.0,30.16,ESE,114,0.0,2.0,88,0.00,,,-99.99,,2013-02-06 18:41:00,
2013-02-06 10:52:00,51.0,48.0,30.16,ESE,114,2.0,5.0,88,0.00,,,-99.99,,2013-02-06 18:52:00,
2013-02-06 11:01:00,51.0,48.0,30.16,ESE,114,1.0,5.0,88,0.00,,,-99.99,,2013-02-06 19:01:00,
2013-02-06 11:11:00,51.0,48.0,30.16,ESE,114,1.0,5.0,88,0.00,,,-99.99,,2013-02-06 19:11:00,
2013-02-06 11:21:00,51.0,48.0,30.16,ESE,114,2.0,4.0,88,0.00,,,-99.99,,2013-02-06 19:21:00,
2013-02-06 11:31:00,51.0,48.0,30.16,ESE,114,2.0,4.0,88,0.00,,,0.00,,2013-02-06 19:31:00,
2013-02-06 11:41:00,51.0,48.0,30.16,ESE,114,2.0,4.0,88,0.00,,,0.00,,2013-02-06 19:41:00,
2013-02-06 11:52:00,51.0,48.0,30.16,ESE,114,1.0,5.0,88,0.00,,,0.00,,2013-02-06 19:52:00,
2013-02-06 12:01:00,52.0,49.0,30.16,ESE,114,3.0,4.0,88,0.00,,,0.00,,2013-02-06 20:01:00,
2013-02-06 12:11:00,52.0,48.0,30.15,ESE,114,2.0,6.0,87,0.00,,,0.00,,2013-02-06 20:11:00,
2013-02-06 12:21:00,52.0,48.0,30.15,ESE,114,2.0,6.0,87,0.00,,,0.00,,2013-02-06 20:21:00,
2013-02-06 12:31:00,52.0,48.0,30.14,ESE,114,4.0,6.0,87,0.00,,,0.00,,2013-02-06 20:31:00,
2013-02-06 12:41:00,52.0,48.0,30.14,ESE,114,4.0,6.0,87,0.00,,,0.00,,2013-02-06 20:41:00,
2013-02-06 12:52:00,52.0,48.0,30.14,ESE,114,4.0,7.0,87,0.00,,,0.00,,2013-02-06 20:52:00,
2013-02-06 13:01:00,52.0,48.0,30.14,ESE,114,4.0,8.0,87,0.00,,,0.00,,2013-02-06 21:01:00,
2013-02-06 13:11:00,52.0,48.0,30.14,ESE,114,4.0,8.0,87,0.00,,,0.00,,2013-02-06 21:11:00,
2013-02-06 13:21:00,52.0,48.0,30.13,ESE,114,6.0,8.0,87,0.00,,,0.00,,2013-02-06 21:21:00,
2013-02-06 13:31:00,52.0,48.0,30.12,ESE,114,5.0,8.0,87,0.00,,,0.00,,2013-02-06 21:31:00,
2013-02-06 13:41:00,52.0,48.0,30.12,ESE,114,5.0,8.0,87,0.00,,,0.00,,2013-02-06 21:41:00,
2013-02-06 13:52:00,53.0,49.0,30.12,ESE,114,5.0,8.0,86,0.00,,,0.00,,2013-02-06 21:52:00,
2013-02-06 14:01:00,53.0,49.0,30.11,ESE,114,4.0,8.0,85,0.00,,,0.00,,2013-02-06 22:01:00,
2013-02-06 14:11:00,53.0,49.0,30.11,ESE,114,4.0,8.0,85,0.00,,,0.00,,2013-02-06 22:11:00,
2013-02-06 14:21:00,53.0,48.0,30.11,ESE,114,4.0,6.0,84,0.00,,,0.00,,2013-02-06 22:21:00,
2013-02-06 14:31:00,53.0,48.0,30.11,ESE,114,3.0,6.0,84,0.00,,,0.00,,2013-02-06 22:31:00,
2013-02-06 14:41:00,53.0,48.0,30.11,ESE,114,3.0,6.0,84,0.00,,,0.00,,2013-02-06 22:41:00,
2013-02-06 14:52:00,53.0,48.0,30.11,ESE,114,5.0,7.0,83,0.00,,,0.00,,2013-02-06 22:52:00,
2013-02-06 15:01:00,53.0,48.0,30.11,ESE,114,5.0,7.0,84,0.00,,,0.00,,2013-02-06 23:01:00,
2013-02-06 15:11:00,53.0,48.0,30.11,ESE,114,5.0,7.0,84,0.00,,,0.00,,2013-02-06 23:11:00,
2013-02-06 15:21:00,53.0,48.0,30.11,ESE,114,5.0,7.0,84,0.00,,,0.00,,2013-02-06 23:21:00,
2013-02-06 15:31:00,53.0,48.0,30.11,ESE,114,5.0,7.0,84,0.00,,,0.00,,2013-02-06 23:31:00,
2013-02-06 19:51:00,50.0,47.0,30.07,SE,133,1.0,5.0,89,0.00,,,0.00,,2013-02-07 03:51:00,
2013-02-06 20:22:00,50.0,47.0,30.07,SE,133,1.0,5.0,89,0.00,,,0.00,,2013-02-07 04:22:00,
2013-02-06 20:31:00,50.0,47.0,30.07,SE,133,1.0,5.0,89,0.00,,,0.00,,2013-02-07 04:31:00,
2013-02-06 20:41:00,50.0,47.0,30.07,SE,133,1.0,5.0,89,0.00,,,0.00,,2013-02-07 04:41:00,
2013-02-06 21:22:00,50.0,47.0,30.06,ESE,121,4.0,8.0,88,0.00,,,0.00,,2013-02-07 05:22:00,
2013-02-06 21:32:00,50.0,46.0,30.07,SE,146,6.0,9.0,86,0.00,,,0.00,,2013-02-07 05:32:00,
2013-02-06 21:40:00,51.0,47.0,30.06,SE,132,6.0,11.0,85,0.00,,,0.00,,2013-02-07 05:40:00,
2013-02-06 21:42:00,50.0,46.0,30.07,SE,146,6.0,9.0,86,0.00,,,0.00,,2013-02-07 05:42:00,
2013-02-06 21:52:00,51.0,47.0,30.06,SE,132,6.0,12.0,85,0.00,,,0.00,,2013-02-07 05:52:00,
2013-02-06 22:01:00,51.0,47.0,30.06,SE,132,6.0,11.0,85,0.00,,,0.00,,2013-02-07 06:01:00,
2013-02-06 22:11:00,51.0,47.0,30.06,SE,132,6.0,11.0,85,0.00,,,0.00,,2013-02-07 06:11:00,
2013-02-06 22:22:00,51.0,47.0,30.06,SE,132,6.0,11.0,85,0.00,,,0.00,,2013-02-07 06:22:00,
2013-02-06 22:31:00,51.0,47.0,30.06,SE,132,6.0,11.0,85,0.00,,,0.00,,2013-02-07 06:31:00,